Location: Bushrod
(6.3500°N, 10.7833°W)
Time: 20:10:23
(UTC+00:00)

CZ-3B R/B - Pass Details

Date: 17 September 2019
Orbit: 145 x 3620 km, 27.0° (Epoch: 13 October)

Event Time Altitude Azimuth Distance (km) Brightness Sun altitude
Rises 20:47:33 0° 231° (SW) 7,314 7.2 -32.0°
Reaches altitude 10° 20:53:54 10° 225° (SW) 5,712 6.4 -33.5°
Enters shadow 21:06:53 40° 175° (S) 2,418 3.9 -36.7°
